This is the latest recevied weather packets stored in our database for station/object S57D-6. If no packets are shown the sender has not sent any weather packets the latest 10 day(s).
| Time | Temp. | Humidity | Pressure | Rain* | Wind** | Luminosity | Snow |
|---|---|---|---|---|---|---|---|
| 1777316604 | 15° C | 55% | 1016.9 hPa | 0 mm | - | - | - |
| 1777316297 | 15.56° C | 54% | 1017 hPa | 0 mm | - | - | - |
| 1777315998 | 15.56° C | 53% | 1017 hPa | 0 mm | - | - | - |
| 1777315697 | 15.56° C | 53% | 1017 hPa | 0 mm | - | - | - |
| 1777315398 | 16.11° C | 52% | 1016.7 hPa | 0 mm | - | - | - |
| 1777315096 | 16.11° C | 51% | 1016.7 hPa | 0 mm | - | - | - |
| 1777314797 | 16.67° C | 51% | 1016.6 hPa | 0 mm | - | - | - |
| 1777314496 | 17.78° C | 50% | 1016.6 hPa | 0 mm | - | - | - |
| 1777313895 | 17.78° C | 47% | 1016.5 hPa | 0 mm | - | - | - |
| 1777313596 | 17.78° C | 47% | 1016.2 hPa | 0 mm | - | - | - |
| 1777313174 | 18.33° C | 46% | 1016.2 hPa | 0 mm | - | - | - |
| 1777312873 | 18.33° C | 47% | 1016.2 hPa | 0 mm | - | - | - |
| 1777312573 | 18.33° C | 47% | 1016.1 hPa | 0 mm | - | - | - |
| 1777312272 | 18.89° C | 47% | 1016 hPa | 0 mm | - | - | - |
| 1777311973 | 18.89° C | 45% | 1016.1 hPa | 0 mm | - | - | - |
| 1777311672 | 18.89° C | 45% | 1015.9 hPa | 0 mm | - | - | - |
| 1777311372 | 19.44° C | 45% | 1015.9 hPa | 0 mm | - | - | - |
| 1777311071 | 19.44° C | 44% | 1015.9 hPa | 0 mm | - | - | - |
| 1777310772 | 19.44° C | 44% | 1015.8 hPa | 0 mm | - | - | - |
| 1777310230 | 20° C | 43% | 1015.8 hPa | 0 mm | - | - | - |
| 1777309929 | 20° C | 43% | 1015.8 hPa | 0 mm | - | - | - |
| 1777309328 | 20.56° C | 42% | 1015.8 hPa | 0 mm | - | - | - |
| 1777309030 | 20.56° C | 42% | 1015.7 hPa | 0 mm | - | - | - |
| 1777308727 | 20.56° C | 41% | 1015.7 hPa | 0 mm | - | - | - |
| 1777308428 | 21.11° C | 41% | 1015.7 hPa | 0 mm | - | - | - |
* Rain latest hour (hover to see other rain measurements)
** Current wind speed in m/s (hover to see current wind gust speed)